Mandan, ND

12:38 PM CST on November 22, 2017 (GMT -0600)
Mandan

Weather History for KY19 - March, 2013

Change the Weather History Date:

Thursday, March 7, 2013

  Actual Average (KBIS) Record (KBIS)
Temperature  
Mean Temperature 22 °F -  
Max Temperature 28 °F 33 °F 66 °F (1898)
Min Temperature 15 °F 12 °F -21 °F (1995)
Degree Days  
Heating Degree Days 44    
Moisture  
Dew Point 23 °F    
Average Humidity 99    
Maximum Humidity 100    
Minimum Humidity 93    
Precipitation  
Precipitation 0.00 in - - ()
Sea Level Pressure  
Sea Level Pressure 30.04 in    
Wind  
Wind Speed 13 mph (SSE)    
Max Wind Speed 20 mph    
Max Gust Speed 25 mph    
Visibility 9 miles    
Events      
Averages and records for this station are not official NWS values.
T = Trace of Precipitation, MM = Missing Value Source: NWS Daily Summary

Daily Weather History Graph

Daily Weather History Graph

Search for Another Location

Airport or City:

Trip Planner

Search our weather history database for the weather conditions in past years. The results will help you decide how hot, cold, wet, or windy it might be!

Date:

Astronomy

Mar. 07, 2013 Rise Set
Actual Time 7:11 AM CST 6:38 PM CST
Civil Twilight 6:41 AM CST 7:08 PM CST
Nautical Twilight 6:06 AM CST 7:43 PM CST
Astronomical Twilight 5:30 AM CST 8:19 PM CST
Moon 4:26 AM CST (3/7) 2:15 PM CST (3/7)
Length of Visible Light 12h 27m
Length of Day
11h 27m
Waning Crescent, 20% of the Moon is Illuminated
Mar 7
Waning Crescent
Mar 11
New
Mar 19
First Quarter
Mar 27
Full
Apr 2
Last Quarter

Hourly Weather History & Observations

Time (CST) Temp. Windchill Dew Point Humidity Pressure Visibility Wind Dir Wind Speed Gust Speed Precip Events Conditions
12:15 AM 15.8 °F -0.6 °F 15.8 °F 100% 30.05 in 10.0 mi ESE 18.4 mph - N/A   Overcast
12:35 AM 17.6 °F 2.7 °F 17.6 °F 100% 30.05 in 10.0 mi SE 16.1 mph 23.0 mph N/A   Overcast
12:55 AM 17.6 °F 1.3 °F 17.6 °F 100% 30.04 in 10.0 mi SE 19.6 mph 25.3 mph N/A   Overcast
1:15 AM 17.6 °F 1.3 °F 17.6 °F 100% 30.03 in 10.0 mi SE 19.6 mph 25.3 mph N/A   Overcast
1:35 AM 17.6 °F 1.7 °F 17.6 °F 100% 30.04 in 10.0 mi SE 18.4 mph - N/A   Overcast
1:55 AM 19.4 °F 4.5 °F 19.4 °F 100% 30.03 in 10.0 mi ESE 17.3 mph - N/A   Overcast
2:15 AM 19.4 °F 5.0 °F 19.4 °F 100% 30.02 in 10.0 mi ESE 16.1 mph - N/A   Overcast
2:35 AM 19.4 °F 5.0 °F 19.4 °F 100% 30.01 in 10.0 mi ESE 16.1 mph - N/A   Overcast
2:55 AM 17.6 °F 3.7 °F 17.6 °F 100% 30.00 in 10.0 mi ESE 13.8 mph - N/A   Overcast
3:15 AM 19.4 °F 5.0 °F 19.4 °F 100% 29.99 in 10.0 mi ESE 16.1 mph - N/A   Mostly Cloudy
3:35 AM 19.4 °F 7.2 °F 19.4 °F 100% 29.99 in 10.0 mi ESE 11.5 mph - N/A   Overcast
3:55 AM 19.4 °F 7.2 °F 19.4 °F 100% 29.99 in 10.0 mi East 11.5 mph 18.4 mph N/A   Overcast
4:15 AM 19.4 °F 7.9 °F 19.4 °F 100% 29.98 in 10.0 mi East 10.4 mph - N/A   Overcast
4:35 AM 17.6 °F 5.0 °F 17.6 °F 100% 29.97 in 10.0 mi East 11.5 mph - N/A   Overcast
4:55 AM 17.6 °F 5.0 °F 17.6 °F 100% 29.97 in 10.0 mi East 11.5 mph - N/A   Overcast
5:15 AM 17.6 °F 5.0 °F 17.6 °F 100% 29.97 in 10.0 mi East 11.5 mph - N/A   Overcast
5:35 AM 17.6 °F 5.7 °F 17.6 °F 100% 29.98 in 10.0 mi East 10.4 mph - N/A   Overcast
5:55 AM 17.6 °F 5.7 °F 17.6 °F 100% 29.98 in 10.0 mi East 10.4 mph - N/A   Overcast
6:15 AM 17.6 °F 5.0 °F 17.6 °F 100% 29.98 in 10.0 mi East 11.5 mph - N/A   Overcast
6:35 AM 17.6 °F 6.4 °F 17.6 °F 100% 29.99 in 10.0 mi East 9.2 mph - N/A   Overcast
6:55 AM 19.4 °F 6.6 °F 19.4 °F 100% 29.98 in 10.0 mi East 12.7 mph - N/A   Overcast
7:15 AM 19.4 °F 5.5 °F 19.4 °F 100% 29.98 in 9.0 mi ESE 15.0 mph - N/A   Overcast
7:35 AM 19.4 °F 6.0 °F 19.4 °F 100% 29.99 in 8.0 mi ESE 13.8 mph - N/A   Overcast
7:55 AM 19.4 °F 5.5 °F 19.4 °F 100% 30.00 in 9.0 mi ESE 15.0 mph 21.9 mph N/A   Overcast
8:15 AM 19.4 °F 6.0 °F 19.4 °F 100% 30.00 in 8.0 mi ESE 13.8 mph 19.6 mph N/A   Overcast
8:35 AM 19.4 °F 6.6 °F 19.4 °F 100% 30.00 in 8.0 mi SE 12.7 mph 19.6 mph N/A   Overcast
8:55 AM 19.4 °F 5.5 °F 19.4 °F 100% 30.00 in 7.0 mi SE 15.0 mph 19.6 mph N/A   Overcast
9:15 AM 21.2 °F 7.8 °F 21.2 °F 100% 30.01 in 6.0 mi SE 15.0 mph - N/A   Overcast
9:35 AM 21.2 °F 7.8 °F 21.2 °F 100% 30.01 in 7.0 mi SE 15.0 mph - N/A   Overcast
9:55 AM 23.0 °F 9.6 °F 23.0 °F 100% 30.00 in 6.0 mi SE 16.1 mph - N/A   Overcast
10:15 AM 23.0 °F 11.1 °F 23.0 °F 100% 30.01 in 7.0 mi SE 12.7 mph - N/A   Overcast
10:35 AM 23.0 °F 11.1 °F 23.0 °F 100% 30.01 in 8.0 mi SE 12.7 mph - N/A   Overcast
10:55 AM 23.0 °F 11.7 °F 23.0 °F 100% 30.02 in 8.0 mi SE 11.5 mph - N/A   Overcast
11:15 AM 23.0 °F 11.7 °F 23.0 °F 100% 30.02 in 7.0 mi SSE 11.5 mph - N/A   Overcast
11:35 AM 24.8 °F 14.6 °F 24.8 °F 100% 30.03 in 8.0 mi SE 10.4 mph - N/A   Overcast
11:55 AM 24.8 °F 13.4 °F 24.8 °F 100% 30.02 in 8.0 mi SE 12.7 mph - N/A   Overcast
12:15 PM 24.8 °F 14.0 °F 24.8 °F 100% 30.01 in 8.0 mi SE 11.5 mph - N/A   Overcast
12:35 PM 24.8 °F 14.6 °F 24.8 °F 100% 30.02 in 8.0 mi SSE 10.4 mph - N/A   Overcast
12:55 PM 24.8 °F 15.3 °F 24.8 °F 100% 30.01 in 8.0 mi SSE 9.2 mph - N/A   Overcast
1:15 PM 26.6 °F 16.2 °F 26.6 °F 100% 30.01 in 9.0 mi SE 11.5 mph - N/A   Overcast
1:35 PM 26.6 °F 16.8 °F 26.6 °F 100% 30.02 in 8.0 mi SSE 10.4 mph - N/A   Overcast
1:55 PM 26.6 °F 18.2 °F 26.6 °F 100% 30.01 in 9.0 mi SSE 8.1 mph - N/A   Overcast
2:15 PM 26.6 °F 19.1 °F 26.6 °F 100% 30.01 in 9.0 mi South 6.9 mph - N/A   Overcast
2:35 PM 28.4 °F 22.2 °F 26.6 °F 93% 30.02 in 10.0 mi South 5.8 mph - N/A   Overcast
2:55 PM 28.4 °F 21.2 °F 26.6 °F 93% 30.04 in 9.0 mi SW 6.9 mph - N/A   Overcast
3:15 PM 28.4 °F 21.2 °F 26.6 °F 93% 30.04 in 10.0 mi SW 6.9 mph - N/A   Overcast
3:35 PM 28.4 °F 23.3 °F 26.6 °F 93% 30.05 in 10.0 mi SW 4.6 mph - N/A   Overcast
3:55 PM 28.4 °F 23.3 °F 26.6 °F 93% 30.05 in 10.0 mi WSW 4.6 mph - N/A   Overcast
4:15 PM 28.4 °F 24.6 °F 26.6 °F 93% 30.05 in 10.0 mi West 3.5 mph - N/A   Overcast
4:35 PM 28.4 °F 22.2 °F 26.6 °F 93% 30.05 in 10.0 mi West 5.8 mph - N/A   Overcast
4:55 PM 28.4 °F 23.3 °F 26.6 °F 93% 30.05 in 10.0 mi SW 4.6 mph - N/A   Overcast
5:15 PM 28.4 °F 22.2 °F 26.6 °F 93% 30.06 in 9.0 mi West 5.8 mph - N/A   Overcast
5:35 PM 28.4 °F 24.6 °F 26.6 °F 93% 30.06 in 10.0 mi West 3.5 mph - N/A   Overcast
5:55 PM 28.4 °F 24.6 °F 26.6 °F 93% 30.07 in 10.0 mi West 3.5 mph - N/A   Overcast
7:35 PM 28.4 °F 22.2 °F 28.4 °F 100% 30.08 in 10.0 mi SSE 5.8 mph - N/A   Overcast
7:55 PM 24.8 °F 17.9 °F 24.8 °F 100% 30.09 in 10.0 mi SSE 5.8 mph - N/A   Partly Cloudy
8:15 PM 24.8 °F 20.5 °F 24.8 °F 100% 30.10 in 10.0 mi South 3.5 mph - N/A   Clear
8:35 PM 24.8 °F 20.5 °F 24.8 °F 100% 30.10 in 8.0 mi South 3.5 mph - N/A   Scattered Clouds
8:55 PM 24.8 °F - 24.8 °F 100% 30.10 in 9.0 mi Calm Calm - N/A   Overcast
9:15 PM 24.8 °F 17.9 °F 24.8 °F 100% 30.11 in 10.0 mi SSW 5.8 mph - N/A   Overcast
9:35 PM 26.6 °F 18.2 °F 26.6 °F 100% 30.12 in 10.0 mi South 8.1 mph - N/A   Overcast
9:55 PM 26.6 °F 17.5 °F 26.6 °F 100% 30.12 in 10.0 mi South 9.2 mph - N/A   Overcast
10:15 PM 26.6 °F 16.8 °F 26.6 °F 100% 30.13 in 10.0 mi SSW 10.4 mph - N/A   Overcast
10:35 PM 26.6 °F 17.5 °F 26.6 °F 100% 30.14 in 10.0 mi SSW 9.2 mph - N/A   Overcast
10:55 PM 26.6 °F 17.5 °F 26.6 °F 100% 30.14 in 10.0 mi SSW 9.2 mph - N/A   Overcast
11:15 PM 24.8 °F 16.9 °F 24.8 °F 100% 30.14 in 10.0 mi SW 6.9 mph - N/A   Overcast
11:35 PM 24.8 °F 16.9 °F 24.8 °F 100% 30.15 in 9.0 mi SW 6.9 mph - N/A   Overcast
11:55 PM 24.8 °F 17.9 °F 24.8 °F 100% 30.15 in 9.0 mi SW 5.8 mph - N/A   Overcast